GFSGBSN_500_rhum_009.txt.gz
RH
42 42 41 40 39 39 40 39 39 38 37 36 34 30 23 24 25 19 16 18 22 29 35 40 37 26 37 53 39 37 40 60 64 69 88 72 75 72 65 53 63 65 71 88 94 80 93
52 50 48 45 43 40 42 43 44 43 40 39 35 29 23 27 24 19 16 20 27 31 31 40 37 29 42 54 44 42 45 66 79 75 82 52 61 55 57 67 97 99 73 97 98 93 87
64 61 56 50 42 44 43 43 43 44 43 40 30 28 27 28 22 19 17 23 28 27 28 43 34 24 51 70 56 58 53 58 86 55 67 48 38 50 73 76 96 98 94 96 96 96 88
76 71 65 58 50 46 46 44 44 43 40 32 22 21 24 28 20 18 18 25 21 19 40 46 32 31 56 67 89 62 45 64 61 56 47 35 51 78 84 97 92 95 95 100 91 94 84
77 74 72 69 62 54 50 47 45 39 33 26 18 18 22 25 17 16 19 26 23 22 41 43 33 35 49 66 80 52 66 78 96 76 66 88 97 98 97 96 93 89 92 97 90 78 44
63 67 70 67 64 58 55 49 44 42 37 27 16 15 18 25 15 16 20 27 25 27 40 40 37 41 41 71 80 43 71 90 96 93 98 98 99 97 91 92 94 94 87 86 74 39 40
52 48 50 50 49 50 49 47 42 38 34 29 22 17 17 24 15 16 21 30 26 33 47 42 48 40 58 54 65 47 76 100 98 100 100 96 100 98 100 96 98 94 72 71 74 38 72
62 58 51 52 48 52 39 38 40 40 36 32 27 20 18 22 15 16 27 27 29 32 46 50 49 50 61 39 51 74 66 100 91 100 96 92 94 93 99 99 95 86 87 86 64 32 53
42 42 45 45 44 45 50 52 42 34 30 28 25 23 20 18 15 17 30 24 36 48 52 59 58 63 56 29 60 82 36 90 99 94 97 100 94 99 96 99 94 87 76 98 86 35 45
28 30 30 31 31 28 30 34 38 39 38 32 26 24 22 16 16 20 27 28 42 46 55 60 60 58 31 27 50 50 36 85 100 99 96 94 97 94 95 98 95 93 75 92 88 94 83
16 18 21 24 25 22 20 18 25 25 28 27 22 23 21 18 16 23 26 34 44 44 50 75 42 30 35 38 50 41 63 91 100 98 86 93 82 85 94 98 60 91 82 55 84 81 96
6 7 9 11 14 16 14 12 15 18 20 22 21 22 23 19 17 25 25 30 48 47 56 47 26 26 41 42 36 33 64 86 84 88 77 99 77 54 82 50 51 44 52 53 51 88 86
3 3 4 5 5 8 8 7 9 11 15 19 16 21 28 19 16 25 20 38 59 42 40 23 19 28 29 27 26 31 43 87 94 94 99 84 87 76 72 68 37 65 92 88 78 95 76
4 3 3 3 3 3 3 4 4 5 10 15 11 18 28 19 19 23 21 42 55 23 36 16 22 27 25 23 22 27 29 48 84 100 99 84 63 51 52 63 96 39 97 84 92 91 74
2 2 2 2 3 2 2 2 2 3 8 12 7 12 26 20 20 23 26 47 20 21 33 20 23 24 26 23 22 25 30 93 68 42 100 98 100 78 26 37 44 97 43 63 68 52 26
1 2 2 2 2 2 2 2 2 2 7 9 4 18 28 21 23 22 29 31 15 14 16 16 17 16 31 14 13 12 19 83 26 21 55 85 95 59 24 26 27 32 45 28 26 24 26
1 1 1 1 2 2 2 2 1 2 6 5 3 23 30 20 25 20 23 24 14 12 12 18 25 28 81 39 24 24 94 35 20 21 21 29 33 34 27 23 49 22 21 21 29 47 31
1 1 1 1 1 2 2 2 2 1 2 5 3 20 26 20 21 22 33 12 10 14 17 22 18 16 14 16 12 13 43 47 13 12 12 12 12 10 23 8 10 12 16 17 20 26 23
2 1 1 1 1 2 2 2 2 2 2 2 3 33 32 22 20 43 35 11 9 19 19 16 13 12 10 10 12 12 13 11 13 14 13 12 10 9 10 11 13 23 26 28 26 20 20
2 1 1 1 1 1 2 2 2 2 2 1 16 34 33 20 26 56 26 7 13 19 15 13 10 11 12 12 11 9 9 10 12 13 15 13 12 11 13 94 46 28 27 26 17 16 19
28 68 2 2 1 1 2 2 1 2 2 0 15 27 30 19 29 54 26 10 19 19 13 10 11 12 8 6 3 3 11 8 8 8 10 9 11 12 15 18 27 24 27 22 14 17 17
38 46 17 4 2 1 2 1 3 2 1 1 6 30 32 35 46 42 16 13 20 18 11 10 11 9 6 5 10 36 40 37 28 17 12 11 12 14 18 28 26 23 24 23 18 16 17
50 44 52 8 3 1 2 1 36 46 3 2 29 40 30 41 53 35 13 17 24 18 10 12 11 8 6 6 13 30 39 38 33 31 26 22 14 14 18 22 22 18 22 25 26 26 27
64 90 97 14 4 5 1 4 79 15 5 32 37 38 28 60 59 31 17 22 25 14 11 12 11 11 10 8 6 8 29 38 35 31 26 24 15 16 20 24 21 22 23 24 24 26 29
100 100 79 8 61 8 69 15 66 4 32 78 60 37 60 74 64 31 19 25 22 13 12 13 11 11 13 14 13 9 7 14 31 30 27 18 18 20 18 19 20 20 18 23 25 29 22
100 99 24 38 94 100 98 62 20 23 95 100 59 39 34 74 55 27 21 25 16 13 14 13 11 11 11 12 12 13 13 9 7 11 23 25 23 21 21 19 16 16 18 18 17 20 9
70 25 10 97 100 100 99 100 68 50 97 94 73 33 37 79 60 27 22 24 16 16 17 13 13 12 11 11 12 15 11 11 11 11 11 8 6 6 7 6 6 6 7 8 10 13 12
7 66 97 100 100 100 97 98 65 74 100 85 77 31 46 68 57 24 24 24 18 15 19 15 13 13 12 12 17 17 12 10 10 11 11 11 11 10 10 10 9 10 9 9 9 8 8
40 100 100 87 83 92 100 71 99 100 100 80 65 39 43 46 48 26 19 22 17 17 20 18 14 15 15 13 13 24 16 11 11 10 11 10 11 10 11 11 10 8 7 6 6 6 7

GFSGBSN_500_rhum_012.txt.gz
RH
58 52 50 50 52 50 45 44 42 40 37 39 40 40 38 35 36 28 26 16 16 17 17 19 23 41 30 24 51 42 34 38 53 61 77 91 89 81 60 70 73 94 90 100 92 82 90
65 60 54 48 48 48 47 44 44 40 39 39 43 43 40 38 37 30 25 17 16 19 17 13 27 42 23 24 54 55 39 44 56 67 79 63 81 77 96 86 54 97 84 68 83 88 94
84 75 66 61 57 53 50 50 46 42 39 41 43 44 40 33 31 26 22 16 16 19 16 13 35 36 19 32 58 68 58 52 60 74 73 64 72 69 70 87 100 95 78 59 96 97 100
93 91 78 67 62 56 52 51 47 44 44 46 46 44 31 25 24 22 20 15 15 21 17 13 35 24 18 28 49 69 65 60 59 54 50 46 65 58 65 64 94 97 91 95 97 76 68
93 96 92 83 73 70 64 54 50 46 47 46 45 40 30 20 20 20 20 14 15 21 20 16 32 20 20 31 55 68 51 74 71 60 47 37 56 67 74 90 91 84 99 97 95 72 53
96 95 94 93 88 80 75 68 72 54 51 49 46 39 31 18 18 19 20 14 16 19 21 21 32 26 26 40 49 66 53 56 70 92 60 74 94 95 94 96 93 94 91 90 88 78 42
94 94 96 96 96 93 88 92 84 84 69 57 47 44 30 21 20 23 21 14 15 20 20 22 41 35 36 44 52 42 60 63 73 97 80 96 98 98 97 92 92 94 92 96 92 56 44
77 91 93 96 93 79 80 86 88 80 77 53 46 43 35 26 23 27 20 13 16 19 19 27 42 38 49 56 55 34 64 85 75 77 98 94 95 92 90 95 96 98 96 89 80 56 35
75 83 68 72 75 80 67 56 52 54 48 46 45 42 40 32 27 28 19 14 18 20 20 29 36 45 52 59 34 33 68 77 95 99 99 88 91 96 95 91 90 98 96 86 96 23 38
41 44 73 71 72 82 87 59 54 48 49 44 36 34 37 32 28 31 19 15 21 22 24 26 38 52 51 53 28 49 82 89 100 98 97 98 89 83 89 82 96 98 78 100 95 80 61
24 31 33 34 56 50 51 69 80 65 52 52 46 35 32 29 32 28 20 17 21 22 31 34 40 50 41 31 52 28 49 57 99 99 98 100 70 72 96 99 98 85 100 81 95 99 98
12 16 18 21 25 28 28 35 33 37 35 35 34 32 30 29 29 30 19 20 26 24 31 35 37 39 28 26 26 56 52 37 84 99 100 94 79 100 95 94 54 45 35 50 94 84 99
5 5 6 9 14 17 22 24 23 24 23 30 24 22 24 23 23 29 19 18 36 15 37 60 41 30 30 36 31 30 49 40 56 92 98 71 72 70 50 53 55 30 39 85 87 87 64
6 5 4 4 4 6 9 14 17 19 16 19 17 18 18 15 19 30 20 22 31 23 44 64 42 32 40 94 32 30 32 35 43 78 74 100 97 51 36 34 84 83 50 99 88 90 87
3 4 5 5 5 4 3 4 8 9 12 12 12 13 15 10 19 30 20 20 24 48 56 87 75 96 77 100 62 27 31 37 47 71 73 58 82 98 70 24 36 77 86 86 93 98 89
2 2 2 3 5 5 4 3 4 5 6 8 8 9 8 5 22 29 20 20 32 62 50 92 82 85 94 98 41 32 29 35 77 76 92 96 89 95 88 33 16 27 56 35 30 23 18
1 1 2 2 2 3 4 4 3 3 4 4 5 6 5 4 19 26 16 18 48 56 27 85 27 90 90 89 23 46 82 98 86 62 53 63 98 99 21 20 21 24 25 20 24 38 24
1 1 1 2 2 2 2 3 3 3 3 3 4 4 6 5 11 18 16 23 55 43 13 19 33 96 69 100 24 29 96 85 40 13 12 19 21 27 19 19 16 18 37 32 16 16 16
3 1 1 1 2 2 2 2 2 2 2 3 3 3 23 8 9 14 20 27 46 28 15 16 20 38 46 93 89 26 94 88 41 20 19 19 18 12 28 54 11 10 13 25 50 20 19
18 2 1 1 1 2 2 2 2 2 2 3 2 3 30 23 9 20 23 29 39 15 12 18 25 27 20 22 27 13 17 15 11 11 11 11 12 12 11 29 97 82 19 26 29 21 24
29 17 1 1 1 1 1 2 2 2 2 2 2 2 4 15 17 16 28 36 41 14 12 25 24 17 13 11 11 12 14 10 11 11 13 15 14 16 15 49 60 100 61 30 27 24 19
31 21 13 2 1 1 1 1 2 2 2 2 3 3 3 16 23 24 25 43 40 11 16 20 18 13 12 12 12 8 7 4 7 9 6 7 11 11 10 15 15 18 19 21 25 25 20
39 22 15 4 2 1 1 1 2 2 2 2 2 3 12 9 40 37 27 52 40 13 22 23 16 13 14 16 6 5 13 77 42 30 25 19 13 12 12 13 16 19 26 26 24 28 27
42 13 3 15 6 2 2 1 2 2 3 2 2 16 40 26 42 24 36 57 35 12 81 24 19 83 10 7 7 10 19 53 40 41 37 26 24 22 16 14 16 23 22 27 25 25 28
51 72 100 91 8 2 2 2 2 25 2 2 16 33 48 44 38 48 46 65 31 46 100 37 15 11 9 8 7 7 10 26 36 36 32 34 29 27 18 15 22 20 22 26 28 31 25
59 51 71 100 12 2 3 2 7 3 2 28 12 63 45 44 28 49 43 81 23 96 35 18 14 11 12 12 14 11 9 9 13 29 30 30 25 20 21 23 23 22 21 23 21 23 10
68 77 77 79 37 2 6 86 93 9 18 35 57 99 77 89 66 69 38 46 23 25 27 17 14 12 12 16 18 14 13 12 10 10 9 13 18 21 22 18 14 9 9 9 10 12 11
80 74 92 92 55 3 48 100 93 44 74 27 57 81 96 100 91 71 65 58 23 23 24 20 15 11 12 13 15 13 15 12 11 11 12 12 12 12 11 11 10 10 10 10 10 9 8
71 95 93 85 6 24 100 100 75 46 13 62 72 100 97 98 61 62 76 54 23 20 22 25 19 19 14 14 14 20 21 17 12 13 12 10 11 11 12 11 9 8 8 7 6 5 5

GFSGBSN_500_rhum_018.txt.gz
RH
74 63 56 52 53 53 53 47 44 41 40 48 51 54 53 49 54 50 42 41 34 21 17 16 9 8 9 14 17 16 28 50 64 48 65 76 83 89 98 92 63 88 80 98 67 52 66
91 84 74 74 70 63 59 60 58 54 55 56 58 57 54 54 58 55 45 43 33 18 18 16 9 8 9 19 15 16 35 36 44 51 68 71 71 60 85 89 77 85 86 85 60 52 84
92 87 93 81 80 79 73 68 62 61 62 61 61 58 53 53 60 58 48 48 32 18 18 16 9 9 10 17 16 18 34 31 31 53 62 72 82 79 60 74 91 90 94 60 73 84 92
98 100 95 100 98 95 95 90 75 75 67 62 60 60 53 53 58 60 59 50 30 17 17 16 10 10 10 19 20 22 32 32 37 59 70 71 76 81 55 65 82 89 81 95 76 100 86
94 99 100 94 94 90 93 97 96 93 76 66 63 57 53 53 59 61 65 49 29 16 17 16 11 10 13 20 24 20 36 38 47 51 72 59 64 73 70 71 67 65 73 76 86 83 95
94 96 96 99 97 98 96 95 97 96 86 76 71 66 60 57 64 70 82 50 28 18 18 16 12 10 13 22 24 20 34 44 57 47 56 43 69 69 77 85 79 77 99 97 97 94 81
79 86 88 92 98 94 97 97 95 96 96 91 94 87 88 72 88 85 84 46 32 23 21 18 12 9 16 23 24 24 26 43 39 53 46 53 54 58 80 88 84 87 85 97 91 64 65
44 68 80 81 82 90 89 94 96 92 96 96 96 96 96 94 91 88 89 54 34 28 25 21 12 11 12 19 20 25 26 37 32 52 70 67 53 67 71 93 92 74 81 81 56 57 49
20 28 42 67 84 87 83 72 87 96 93 96 98 97 95 96 81 94 94 57 42 33 27 24 14 14 15 14 15 23 34 33 36 48 88 80 80 77 99 98 92 91 96 80 69 69 72
15 19 23 34 53 77 90 92 86 92 96 92 95 97 98 95 96 97 87 70 47 39 27 26 16 16 19 22 30 24 39 27 36 49 76 77 81 82 92 100 90 89 78 84 94 89 85
12 13 16 20 29 35 49 81 96 98 96 96 93 96 96 94 99 96 88 69 50 39 29 24 16 18 19 26 24 27 35 23 29 40 55 92 73 68 96 88 66 76 85 89 90 85 96
9 11 12 14 17 23 28 34 65 89 98 95 86 93 86 98 97 86 88 59 45 35 30 26 20 28 21 29 26 23 22 18 35 35 71 92 78 77 96 87 78 51 66 74 80 73 79
6 8 11 12 12 14 19 23 26 44 76 94 66 84 92 81 74 84 51 54 37 33 31 28 25 29 22 28 22 15 14 17 29 42 64 77 74 68 92 81 79 59 46 94 74 76 73
4 5 6 8 12 12 10 14 18 20 37 68 84 79 77 100 90 67 32 54 44 35 31 32 30 26 24 30 15 11 16 18 28 57 90 93 65 76 88 66 50 52 61 42 40 56 77
3 3 4 5 7 11 11 9 8 16 16 30 59 89 59 100 82 70 40 59 43 40 29 32 29 28 25 31 13 16 22 20 24 44 57 91 69 80 56 42 38 65 64 65 55 66 53
2 2 3 3 5 6 9 10 9 6 12 12 34 56 76 89 93 100 57 51 50 32 26 30 27 28 30 30 11 23 30 24 46 46 46 68 98 96 72 64 52 45 70 73 79 72 46
26 3 2 2 3 4 5 7 9 8 6 9 12 23 47 80 93 96 59 46 49 24 24 29 29 31 30 25 16 37 54 42 33 35 44 44 57 82 79 79 98 88 60 59 55 74 57
59 23 4 2 2 2 4 4 5 7 6 5 7 15 22 24 76 74 51 52 50 36 27 28 37 36 40 22 46 74 46 37 47 45 44 53 88 71 66 82 78 95 44 38 22 25 35
64 54 38 9 2 2 2 3 3 4 5 6 6 7 15 6 33 58 47 45 56 41 28 28 31 44 50 22 28 50 68 45 52 41 49 55 91 91 64 49 67 31 33 30 24 33 33
55 64 47 40 24 2 2 2 3 3 3 5 6 5 7 8 27 39 51 48 31 19 22 25 31 44 38 31 21 77 62 25 57 70 83 100 72 40 15 19 29 28 37 55 18 12 11
97 68 56 45 40 25 2 2 2 2 3 4 5 6 6 10 18 29 43 41 18 14 19 27 28 40 55 18 16 48 88 15 46 37 92 75 54 22 18 20 18 17 10 18 28 47 28
98 72 65 41 50 37 19 2 2 2 3 4 3 5 6 6 6 14 31 36 22 11 17 17 26 43 48 12 11 34 93 34 31 35 73 94 72 39 19 12 10 12 12 12 21 59 61
100 85 57 51 55 42 33 16 2 2 3 4 3 3 6 6 5 6 14 21 13 8 16 25 29 50 50 13 20 32 87 96 84 43 27 16 12 13 10 10 11 11 10 10 16 37 23
100 90 82 73 61 50 44 25 12 2 2 3 3 2 4 6 5 6 8 11 9 8 18 35 40 52 45 17 16 37 39 30 21 18 14 22 13 12 7 7 9 12 14 13 13 16 22
100 100 100 86 73 59 48 28 18 6 2 3 4 2 3 5 5 4 7 8 7 16 31 38 31 52 29 14 16 41 37 37 26 19 12 31 92 74 45 29 22 24 19 16 14 21 27
90 80 76 79 72 65 46 27 20 12 1 4 4 3 3 5 6 5 6 11 11 14 38 32 30 45 40 26 25 28 20 21 16 13 12 23 71 90 77 61 48 41 29 25 17 21 26
78 84 94 85 78 63 39 32 23 9 2 4 4 4 3 4 5 5 6 13 24 22 31 30 30 51 28 18 35 37 19 35 25 8 9 14 23 29 33 28 25 24 29 22 17 24 29
96 100 98 78 60 47 39 30 18 5 2 4 6 4 13 17 15 6 8 13 34 20 21 24 39 49 40 34 45 32 26 15 7 8 10 10 13 25 31 28 26 26 27 25 25 16 12
90 95 69 47 42 36 28 24 7 3 2 4 5 4 8 33 70 34 17 8 27 25 26 37 39 57 56 48 43 33 37 11 8 12 11 12 13 14 14 14 13 13 13 12 11 13 12

GFSGBSN_500_rhum_021.txt.gz
RH
84 84 77 73 69 68 58 49 46 53 53 56 50 44 40 42 40 44 46 46 42 39 41 27 19 18 10 10 8 13 16 24 28 39 51 60 64 37 74 43 51 94 86 84 99 90 81
74 85 94 86 78 76 72 63 50 49 50 50 50 51 50 51 48 49 48 46 44 41 45 27 18 18 10 10 10 15 17 25 25 30 50 59 76 75 80 56 85 78 99 83 93 67 66
76 82 88 98 95 91 87 84 74 67 63 59 58 58 58 61 60 55 51 47 44 45 53 24 18 17 11 10 10 18 19 25 27 23 40 64 83 87 58 93 76 75 90 94 71 55 68
79 84 86 91 100 89 98 91 90 86 80 79 71 80 69 80 64 60 54 47 46 50 50 24 17 17 11 10 10 20 19 25 32 41 61 73 62 80 78 88 75 76 83 70 65 66 77
79 91 92 85 88 98 99 98 95 88 94 94 95 91 88 91 80 59 53 48 50 57 52 23 17 17 12 11 11 20 18 28 38 43 56 73 57 80 85 72 83 79 72 65 58 61 82
89 100 98 99 87 90 98 95 99 96 96 97 98 99 97 93 88 66 52 52 54 54 63 22 18 17 13 10 11 20 22 26 44 48 52 54 60 73 89 83 78 62 71 70 66 64 80
35 50 79 100 97 95 87 88 97 94 96 98 97 98 96 96 92 78 62 63 57 63 42 25 22 19 13 10 12 16 26 25 42 55 45 47 68 72 95 77 72 58 64 92 91 86 71
12 22 36 53 77 94 95 93 86 87 92 96 94 94 96 97 93 89 71 67 68 70 55 28 25 22 15 11 11 13 23 25 34 44 48 48 63 62 86 84 91 96 91 96 95 92 58
11 13 17 27 35 52 83 94 94 97 88 91 96 88 99 97 98 96 87 85 89 80 63 34 27 24 16 13 13 12 19 32 30 37 66 57 57 79 83 88 92 96 95 68 62 50 46
8 10 11 12 23 27 39 70 79 92 95 95 94 99 96 95 96 97 93 88 93 92 79 37 28 23 18 15 18 17 24 30 26 42 66 51 48 72 95 88 92 87 99 88 83 86 79
6 7 10 13 16 24 28 47 66 77 92 94 92 100 99 82 98 93 88 94 93 98 60 39 30 22 18 19 20 21 32 27 31 41 54 59 45 61 79 86 92 86 75 68 47 59 91
4 5 6 10 14 17 23 26 40 78 82 100 100 91 96 97 98 91 96 97 97 92 55 39 30 25 19 23 22 22 27 24 30 28 56 55 41 60 68 97 88 84 78 81 76 76 78
3 3 4 5 9 14 15 21 23 38 68 88 97 95 96 100 84 95 96 97 96 71 51 39 32 27 24 24 25 22 21 17 18 24 55 62 78 72 76 95 72 60 52 76 85 85 82
14 3 3 4 5 9 14 13 18 17 35 59 73 98 99 88 91 76 96 97 77 60 40 37 33 29 27 26 28 26 15 11 16 21 67 69 82 65 75 88 77 66 56 57 73 77 64
43 22 4 2 4 5 10 13 10 15 14 32 48 71 96 57 64 100 62 85 62 60 39 33 32 32 32 26 28 28 12 10 20 21 54 68 85 89 88 95 84 71 52 47 41 38 37
58 47 29 4 2 4 5 10 13 9 11 12 26 32 69 93 22 88 85 59 65 53 40 32 32 32 31 28 28 27 10 20 22 18 43 70 73 76 93 86 94 74 54 58 61 54 56
100 82 63 35 5 3 3 6 12 12 7 8 10 15 29 28 77 47 58 50 63 52 42 30 33 30 29 26 28 28 12 42 27 37 39 56 59 79 86 83 80 89 90 86 54 56 46
99 100 100 49 30 4 3 4 6 13 10 7 8 15 18 7 57 66 52 55 62 60 45 39 40 29 27 26 29 28 36 56 34 35 49 47 46 70 75 93 84 79 88 89 77 25 22
53 100 99 88 42 14 3 3 4 7 12 8 6 10 14 6 28 51 55 59 77 57 66 60 43 32 26 26 34 35 30 58 40 34 33 35 37 37 41 57 56 46 77 99 82 23 13
55 97 98 100 59 41 9 2 3 4 7 9 7 6 8 9 22 42 57 63 71 89 49 57 40 33 26 26 39 44 46 53 35 41 48 44 40 50 52 67 94 72 86 64 38 21 23
96 95 94 100 66 53 24 3 2 3 5 6 7 6 6 10 15 23 39 58 75 92 77 50 48 47 29 27 39 51 29 46 55 32 46 69 56 58 84 57 30 20 22 27 23 14 16
100 84 88 100 61 47 31 10 2 2 4 4 6 8 8 7 10 15 25 37 61 73 78 64 69 58 30 31 43 64 30 35 55 36 23 36 80 92 81 48 30 22 24 25 12 10 10
100 72 97 98 67 66 38 22 4 2 3 4 4 6 8 9 7 10 14 25 37 65 44 38 42 41 29 32 64 82 58 29 99 98 28 34 52 83 70 51 35 20 11 11 11 13 13
93 75 100 96 65 70 47 43 16 2 2 3 4 4 6 8 8 7 9 18 25 46 55 16 21 30 35 46 62 85 45 27 60 100 67 22 25 32 31 24 13 8 12 12 11 10 11
98 100 100 81 70 67 54 40 31 9 2 2 3 3 4 6 8 7 8 13 15 24 27 12 31 41 68 61 73 93 50 24 88 81 54 33 45 24 18 22 40 9 15 18 16 17 15
100 100 100 100 83 68 52 46 40 31 7 2 2 3 3 4 6 7 7 10 13 20 10 11 72 67 34 47 69 89 51 28 36 47 45 35 27 18 17 42 75 86 62 52 46 27 21
100 100 100 100 90 69 51 55 55 43 26 4 2 3 3 3 4 6 7 8 7 6 8 18 20 71 33 54 67 94 44 35 41 40 43 28 18 15 12 19 24 29 47 55 39 29 33
100 100 100 96 71 68 66 60 48 38 28 14 2 2 3 3 3 5 6 6 5 6 7 19 50 35 43 42 75 98 36 17 22 25 20 26 19 8 12 15 19 32 36 28 29 30 32
100 100 100 100 100 94 77 67 58 41 27 19 3 2 3 3 3 5 5 5 5 7 7 22 23 26 32 42 65 88 54 22 22 26 22 28 9 10 12 14 19 20 17 21 22 23 20

GFSGBSN_500_rhum_024.txt.gz
RH
63 58 54 52 65 75 74 73 72 54 59 60 55 53 53 53 53 58 46 41 38 39 49 45 42 42 25 17 15 11 8 13 15 23 19 45 67 59 34 45 83 95 93 98 97 89 90
70 68 66 60 50 68 73 77 79 78 71 72 65 51 53 52 54 58 56 48 46 47 51 48 46 45 27 17 14 11 8 14 16 20 23 46 68 78 57 78 59 87 95 87 90 98 94
63 62 64 64 58 55 59 69 73 86 88 82 77 70 59 53 56 62 63 58 58 51 54 49 50 46 34 16 14 11 8 14 16 22 28 57 74 84 76 80 82 74 95 82 93 88 83
61 64 63 58 63 62 62 59 73 78 92 96 91 87 78 74 85 77 77 66 54 58 55 51 52 45 53 17 15 11 9 12 18 33 36 65 72 69 78 73 90 69 97 93 90 90 84
33 44 56 58 67 71 70 75 74 76 88 88 98 97 96 84 93 95 85 89 61 60 55 53 55 56 43 17 15 10 9 10 21 32 39 61 54 69 77 81 93 68 99 95 72 70 81
12 14 19 29 48 65 84 91 91 88 93 80 94 98 96 86 91 85 95 95 74 65 57 54 56 68 30 19 16 11 10 10 21 33 42 62 53 66 65 94 83 83 83 80 64 61 82
8 7 8 10 16 35 68 96 100 99 97 93 90 97 99 96 92 92 85 96 90 75 61 52 58 62 26 21 18 12 10 10 19 30 36 47 51 60 54 92 81 82 73 74 64 67 86
8 8 8 8 8 12 32 63 100 100 97 98 98 98 96 93 93 97 95 85 99 83 70 59 58 68 26 24 19 12 12 11 18 34 45 51 64 70 55 86 100 83 74 81 78 78 86
7 6 6 7 8 9 12 27 48 81 100 100 98 98 96 90 88 94 87 94 100 90 75 68 69 66 30 25 20 14 14 14 16 25 54 63 53 66 61 95 99 98 95 93 67 53 41
5 6 6 6 7 10 13 16 30 46 64 97 100 97 97 87 89 86 82 98 96 95 81 74 76 76 50 28 22 16 16 17 20 27 33 58 48 46 54 64 79 98 100 86 70 53 70
3 3 3 5 6 8 12 15 22 32 43 59 83 100 92 87 89 87 80 92 96 86 79 78 89 84 60 28 22 19 22 17 22 34 31 54 56 54 63 69 77 98 90 77 64 69 62
10 7 4 2 3 6 8 12 16 23 29 44 68 93 98 94 93 100 87 98 93 92 77 79 88 93 37 30 24 18 21 19 24 29 25 44 58 59 81 69 63 77 78 70 63 54 50
28 30 31 12 5 2 5 8 15 16 25 30 58 91 83 100 88 89 90 97 91 79 89 88 84 63 37 29 20 21 26 19 22 24 23 49 54 61 77 64 58 70 65 70 68 57 58
69 59 30 30 26 6 3 5 8 15 16 23 31 70 80 80 78 87 80 92 69 59 77 92 79 41 34 30 23 23 27 22 20 16 26 43 66 65 71 78 84 76 65 65 71 61 69
90 93 74 64 37 22 5 4 5 9 15 15 16 38 74 71 97 89 70 82 51 62 78 100 82 55 36 33 26 26 30 26 21 11 18 32 66 89 88 94 92 73 65 61 58 53 54
71 95 100 83 69 26 16 4 4 6 12 12 13 17 43 75 36 91 75 62 59 77 94 98 80 48 37 34 30 30 29 27 20 8 18 34 65 93 100 100 91 94 77 71 60 50 40
50 82 100 100 90 42 29 9 3 5 7 14 9 14 27 67 29 74 58 50 59 68 99 97 86 53 37 35 34 31 31 26 15 11 20 28 53 96 97 87 99 96 80 72 60 67 58
51 100 96 100 98 70 33 24 4 3 5 10 10 12 17 43 51 54 48 49 62 75 97 98 77 36 34 35 32 31 29 26 20 18 20 25 49 85 88 87 97 88 78 68 64 60 62
100 100 100 100 87 100 42 43 10 3 4 6 12 9 10 14 41 38 44 55 53 94 98 92 62 33 30 32 33 31 32 34 37 33 27 40 43 76 81 74 60 70 77 73 60 49 46
92 100 100 100 83 100 98 69 34 5 2 4 9 9 8 9 22 36 45 52 53 92 99 86 63 32 32 35 30 35 36 33 38 46 38 47 51 50 45 43 58 75 58 62 51 50 41
67 87 100 100 88 100 100 95 45 11 3 2 6 10 9 14 17 19 29 41 68 72 96 84 36 35 31 35 34 33 40 42 36 47 50 45 38 39 42 56 48 55 60 63 48 40 33
100 65 99 100 90 95 100 100 64 32 6 2 3 9 12 11 13 18 20 25 52 77 97 85 71 36 35 45 37 48 60 59 44 53 52 42 46 46 83 86 71 74 47 22 16 18 20
98 58 56 77 93 100 100 100 85 44 13 3 2 6 12 12 10 12 12 18 34 83 92 92 72 44 51 48 60 60 61 66 50 59 66 48 42 63 80 100 95 49 23 27 22 17 10
95 96 66 50 100 100 100 100 80 52 20 4 2 4 9 12 11 10 10 16 22 52 95 100 100 81 42 60 70 66 77 80 77 42 66 76 85 44 72 79 58 26 14 9 9 9 10
100 92 78 100 100 100 100 100 76 63 44 11 3 3 6 12 12 10 10 12 16 17 56 99 95 81 48 97 100 81 68 89 96 72 35 64 93 84 48 30 21 10 15 29 46 13 11
94 75 100 92 100 100 100 88 84 100 52 25 4 2 4 10 12 10 8 10 12 16 27 87 77 26 84 100 94 74 70 73 80 54 33 30 85 86 48 37 16 9 13 28 76 48 41
90 100 100 100 100 98 100 100 100 79 77 34 7 2 3 6 10 11 9 8 8 10 25 39 90 44 51 70 90 75 86 97 71 58 45 37 90 73 66 41 19 13 10 17 27 32 48
100 100 100 100 100 100 100 100 100 100 71 21 5 2 3 5 7 10 9 8 7 8 11 15 39 65 37 26 53 68 63 72 76 69 51 36 56 56 66 27 12 12 12 18 27 29 29
100 100 100 100 100 100 100 100 100 60 38 20 5 2 2 4 5 7 9 8 8 6 7 10 20 26 36 29 37 73 50 65 42 49 55 29 37 36 29 29 11 10 14 23 25 29 27

GFSGBSN_500_rhum_027.txt.gz
RH
66 61 57 56 56 53 53 52 54 57 69 71 73 70 54 51 56 52 50 55 63 58 52 50 46 54 51 44 42 47 18 13 9 10 16 23 41 34 25 43 87 82 82 79 100 69 98
64 63 64 58 60 56 57 54 54 60 52 62 77 80 75 70 73 70 54 52 55 61 64 63 60 58 54 45 44 59 21 13 8 11 16 24 46 43 36 43 77 87 80 66 91 100 94
61 55 54 57 61 62 62 64 66 57 61 58 65 81 83 83 79 75 70 58 57 61 68 68 62 64 56 49 50 62 23 12 8 12 18 29 46 45 58 73 41 78 86 98 84 98 96
42 41 44 47 50 55 55 58 59 62 68 64 64 66 78 81 81 83 82 77 73 80 72 72 70 62 58 52 57 57 20 13 8 13 22 31 52 36 36 70 60 71 97 100 100 83 88
11 13 18 23 28 35 49 50 53 58 58 64 75 70 62 78 83 78 83 90 85 91 92 93 78 65 58 54 58 50 19 13 9 12 23 33 45 42 38 51 73 87 88 99 98 97 98
11 10 9 10 9 12 19 28 38 53 54 61 68 81 73 76 91 92 83 85 89 90 77 99 89 72 59 58 59 38 25 14 9 12 24 30 36 46 51 31 77 78 87 97 98 87 86
12 12 12 11 10 9 8 8 14 22 35 57 68 88 89 76 77 92 86 92 91 81 78 92 98 87 64 60 60 38 29 15 10 12 25 35 40 49 47 32 62 71 90 91 82 73 85
13 12 11 12 11 11 10 9 8 8 16 33 53 79 100 93 85 81 82 77 78 85 82 93 88 100 71 61 64 39 29 16 12 12 17 34 40 50 49 37 67 79 84 77 70 66 76
5 6 6 7 6 6 7 8 8 8 8 19 42 77 98 98 89 92 81 83 87 72 62 93 88 94 75 66 69 38 26 17 13 15 16 25 43 43 47 59 74 84 87 75 67 83 98
3 3 3 3 4 4 4 6 6 7 9 12 32 58 82 95 92 97 89 85 88 66 60 74 85 94 89 74 82 34 28 18 14 17 20 26 41 38 49 58 94 80 84 85 78 83 69
2 2 2 2 2 2 2 3 5 7 8 13 20 37 60 77 90 99 93 95 90 73 68 65 63 79 88 77 83 81 33 20 18 19 20 27 39 38 41 55 76 84 86 80 85 79 48
27 24 15 7 6 3 2 2 2 3 6 10 16 24 40 48 68 83 91 98 89 81 56 63 63 74 90 91 95 92 30 23 22 17 17 22 27 50 50 57 63 71 88 86 78 47 55
34 39 50 49 40 36 20 10 4 3 2 6 12 16 26 42 55 63 75 96 92 60 55 62 64 85 96 94 93 77 34 25 22 20 21 23 19 46 59 65 63 68 73 73 72 59 59
30 37 40 36 36 46 54 29 15 4 4 4 7 15 19 32 64 55 62 86 77 45 55 71 72 72 96 97 93 49 34 22 26 21 22 18 20 32 47 54 63 69 80 68 63 55 56
45 41 46 59 53 36 51 60 28 14 5 6 7 11 16 24 54 30 52 73 33 39 52 84 86 83 96 92 58 36 27 25 30 28 27 19 19 47 59 61 63 75 81 79 68 60 53
63 52 46 40 65 72 52 66 60 29 12 7 7 10 15 16 35 39 36 44 38 41 65 80 91 91 99 80 42 35 29 30 29 31 26 19 24 54 78 81 77 84 93 82 66 62 62
62 75 64 62 68 65 71 78 74 45 28 10 6 10 13 10 25 33 55 28 38 34 59 74 90 96 98 76 42 40 38 36 36 35 19 12 18 42 71 84 86 96 93 90 78 71 60
71 61 59 83 69 76 83 71 87 78 48 27 8 6 11 8 19 43 44 23 30 43 55 76 77 98 100 96 69 44 40 42 42 29 14 15 20 27 55 92 96 89 80 92 97 75 65
45 43 100 100 100 100 97 97 93 100 72 39 20 5 9 12 10 24 31 30 28 55 59 78 88 99 100 95 83 61 47 46 38 26 18 21 21 23 40 70 82 75 77 94 96 80 56
60 77 94 100 100 100 100 100 100 100 99 45 33 8 6 16 9 12 30 32 27 44 62 84 91 100 100 86 88 73 50 50 34 28 30 36 27 26 26 37 79 77 66 80 96 74 58
96 93 62 98 100 100 100 100 100 100 100 80 43 22 4 10 11 10 21 26 39 43 64 80 93 98 88 98 99 79 70 49 44 38 50 51 33 32 37 48 65 61 62 68 73 60 44
100 96 90 95 100 100 100 100 100 100 100 100 55 23 4 6 12 10 17 19 25 48 60 69 86 100 63 94 100 91 85 62 51 59 84 72 40 37 36 42 44 43 47 43 42 58 65
100 100 94 84 72 100 100 100 100 100 100 90 30 23 5 5 10 11 13 17 19 46 52 71 100 98 42 32 99 97 85 71 57 56 75 94 58 46 40 47 50 36 44 55 76 53 28
100 100 91 96 89 80 100 100 100 100 94 73 51 34 6 4 8 12 12 16 20 37 39 77 96 99 76 85 99 99 90 71 66 68 73 86 80 82 62 50 40 34 79 79 58 24 15
96 86 97 100 88 78 100 100 100 100 100 92 74 38 7 4 6 10 10 13 14 24 32 46 92 100 96 95 89 100 82 72 63 67 78 67 55 62 68 57 38 24 47 42 32 15 19
89 100 100 100 74 83 100 100 100 100 96 100 65 36 15 4 4 10 10 10 11 17 22 30 92 100 98 98 96 82 99 78 69 70 86 82 94 89 63 58 37 33 34 33 20 12 31
100 99 99 92 97 92 100 100 100 100 100 100 58 33 27 4 4 8 11 10 10 12 14 13 41 100 99 98 91 66 64 65 78 83 66 74 81 68 35 36 39 42 43 31 16 12 13
93 89 96 80 68 100 100 98 100 100 100 95 94 40 19 4 3 5 9 10 9 10 10 11 21 85 92 91 89 62 55 97 99 91 84 61 66 63 38 47 53 50 49 28 13 10 15
100 86 100 66 87 100 97 100 100 100 93 100 98 37 13 7 29 5 8 11 10 9 8 9 31 53 75 88 73 68 65 93 100 80 80 82 74 76 64 36 47 41 28 23 10 12 16

GFSGBSN_500_rhum_030.txt.gz
RH
65 62 64 62 54 52 47 46 54 59 61 62 63 64 65 69 69 69 64 49 52 58 48 56 63 63 64 60 54 51 44 48 53 15 8 9 12 23 24 18 50 72 79 99 76 46 96
74 70 72 80 73 64 58 50 49 52 60 64 64 62 59 66 72 73 74 73 69 75 58 54 58 60 65 62 57 51 47 55 54 13 8 10 11 29 28 15 60 74 76 81 90 98 85
77 81 79 75 73 67 59 53 52 47 51 51 60 65 67 57 67 73 88 81 79 76 87 72 65 66 68 70 62 56 50 59 39 12 9 12 13 29 25 16 36 67 91 71 81 100 97
42 43 56 64 63 59 60 56 53 53 51 50 51 54 58 60 58 63 82 92 81 83 78 81 76 86 78 79 70 59 55 52 24 11 10 16 16 23 18 22 22 51 82 97 100 100 98
18 15 15 17 20 21 30 35 39 44 48 48 46 47 48 49 49 55 69 76 89 92 88 82 89 93 94 81 75 62 56 52 21 12 11 16 22 21 20 18 26 58 100 97 89 100 100
16 16 15 14 13 13 11 10 12 17 22 29 35 47 50 48 55 54 49 64 74 83 91 86 83 86 81 87 80 66 58 50 21 13 12 18 26 28 26 22 96 100 100 100 100 96 95
13 16 16 14 12 9 9 10 9 9 10 11 13 18 24 38 53 63 55 58 61 64 82 82 80 83 81 89 82 71 61 52 23 14 14 18 26 35 36 25 24 46 75 100 96 83 78
9 12 13 14 13 12 10 7 7 9 8 9 9 9 12 15 23 37 55 58 66 62 67 73 76 83 78 81 86 79 63 52 28 15 15 20 20 41 34 28 24 48 64 87 83 73 73
3 4 5 6 7 7 7 7 6 5 6 8 9 9 9 10 11 21 38 52 73 51 60 77 69 77 75 65 88 80 67 54 33 17 17 21 22 38 32 27 34 44 79 63 70 61 71
2 2 2 2 3 3 4 4 4 4 3 5 7 9 9 9 12 23 26 33 77 63 55 66 76 66 73 64 75 80 70 67 37 20 19 23 23 36 43 44 35 52 54 73 37 39 99
2 2 2 2 2 2 2 2 2 3 2 2 3 6 7 9 10 20 33 45 61 89 60 60 68 65 64 58 73 77 89 83 62 30 20 30 24 38 41 52 57 72 67 80 92 75 92
17 16 13 10 8 8 6 3 2 2 2 2 2 2 5 7 9 17 33 54 66 82 66 59 54 61 62 58 71 83 76 78 94 36 20 24 19 26 57 44 50 51 57 61 89 96 83
40 38 35 31 30 27 27 28 27 21 9 4 3 3 3 5 8 16 24 49 73 59 52 62 58 69 66 61 74 91 84 80 82 28 21 26 22 25 46 60 55 64 52 98 100 97 96
38 28 29 33 33 27 28 31 33 31 32 39 6 4 6 6 8 13 23 39 52 19 48 51 47 65 72 66 66 85 89 93 96 35 24 28 23 22 26 62 66 68 74 77 100 100 100
24 26 26 26 29 33 32 31 35 36 31 30 44 10 5 7 10 12 18 44 16 20 32 40 60 66 73 71 65 81 81 88 89 35 24 27 29 21 29 45 51 54 68 92 71 72 79
43 38 36 34 26 27 33 48 62 46 47 37 54 44 13 6 10 14 29 30 11 18 21 42 48 80 88 80 72 80 79 91 74 30 28 30 34 24 22 47 64 78 76 77 63 75 70
42 51 58 64 56 42 42 38 48 66 49 48 65 71 28 11 7 16 26 25 10 20 22 44 67 79 86 92 86 90 94 94 41 27 33 32 30 25 22 38 98 82 78 83 94 77 64
60 57 57 56 80 85 100 87 67 80 60 58 60 61 38 24 7 10 15 13 18 28 29 53 46 80 88 97 100 94 90 60 34 34 37 31 31 18 22 30 83 100 100 100 100 94 64
69 78 72 66 87 100 100 97 82 72 98 63 62 73 66 42 14 6 10 11 26 41 47 54 73 84 95 100 100 97 92 53 54 44 44 35 24 17 17 24 47 78 86 88 93 87 71
64 31 25 30 87 100 100 100 77 100 100 100 69 98 100 44 28 7 7 11 14 37 52 48 72 75 84 100 97 95 72 70 90 53 47 34 28 20 15 18 52 61 81 86 88 82 70
47 56 62 55 61 51 62 49 100 100 100 100 97 100 82 45 29 12 6 10 12 25 50 50 68 72 83 98 100 100 88 97 89 54 45 26 23 21 21 32 41 34 80 92 87 68 72
58 66 60 67 57 54 55 54 100 100 100 100 100 90 70 54 44 20 6 8 11 14 37 49 56 65 73 96 100 100 99 89 93 71 39 26 28 28 30 34 44 44 38 57 57 62 43
94 68 75 100 89 76 77 48 100 100 100 97 94 99 88 80 55 37 6 6 13 12 25 42 37 85 69 97 100 99 98 98 95 60 38 34 38 45 31 37 41 33 35 39 38 36 39
80 79 95 100 100 99 85 51 100 100 100 88 92 95 86 90 93 30 11 5 10 13 16 40 36 89 70 98 98 100 100 97 91 65 48 49 46 64 59 59 30 25 36 40 43 60 62
85 74 100 99 100 100 57 54 100 100 100 100 100 97 93 100 61 32 10 5 9 11 10 32 42 43 99 98 100 98 100 99 98 78 74 64 85 74 62 35 30 21 27 50 55 70 71
91 71 90 98 94 96 58 76 100 100 100 93 99 96 100 100 45 66 8 6 7 12 10 18 40 44 94 100 92 96 98 98 100 81 76 78 92 96 76 42 18 30 57 63 45 22 46
85 100 98 100 97 100 72 100 100 100 100 83 100 100 100 77 99 83 20 10 6 12 12 10 36 52 73 100 86 79 98 100 96 95 98 79 86 88 69 55 26 23 45 66 43 32 40
96 94 99 100 99 97 100 88 62 100 100 97 100 100 99 82 92 77 77 83 24 14 30 12 16 41 91 95 99 72 94 98 99 100 78 85 74 70 69 64 24 30 40 66 61 41 24
83 83 96 98 89 94 74 58 99 100 100 100 100 100 92 94 78 70 30 72 46 20 16 12 15 22 62 96 93 79 76 95 95 98 100 96 79 68 54 43 56 43 49 82 65 33 23

GFSGBSN_500_rhum_033.txt.gz
RH
95 92 90 77 67 64 57 62 58 56 46 46 50 49 52 55 64 79 80 83 76 66 63 52 64 64 55 57 59 64 57 53 48 48 35 10 8 6 33 18 27 30 56 83 55 38 34
96 96 94 82 75 69 64 61 70 69 60 52 54 49 52 52 60 63 69 73 84 88 89 90 86 75 61 64 61 67 66 58 51 50 29 9 8 9 22 16 30 42 32 52 83 94 61
91 83 82 82 79 81 76 72 69 72 68 63 60 55 52 55 61 62 66 68 66 80 91 94 91 91 89 70 70 69 69 63 54 52 22 10 8 10 15 19 21 47 51 40 45 62 80
86 74 66 66 69 75 74 80 86 78 72 64 56 55 61 56 60 62 64 64 60 65 67 90 96 87 82 76 82 85 79 66 55 54 21 11 9 14 14 15 15 36 58 99 89 66 63
84 66 44 36 35 43 46 45 52 56 61 63 61 57 53 56 56 57 58 58 58 55 64 63 86 87 86 84 88 87 88 67 56 55 24 12 10 16 23 16 80 55 100 98 84 67 62
38 31 30 19 17 17 16 13 14 14 16 17 27 37 42 45 51 55 57 52 56 53 54 67 69 83 75 77 78 82 88 72 58 57 28 14 11 18 24 91 99 100 90 85 74 99 76
14 14 14 15 14 14 15 15 13 12 11 11 12 10 11 15 20 28 36 44 52 52 52 60 58 64 77 72 72 75 88 76 62 58 38 15 12 16 29 92 97 99 97 100 95 96 70
6 8 9 8 8 8 9 10 10 10 8 8 8 9 10 11 10 10 13 19 25 37 42 52 54 56 70 68 67 66 77 82 74 60 50 24 13 14 23 48 28 38 96 90 99 72 56
3 3 3 4 4 4 4 5 5 7 8 7 7 8 7 7 9 10 9 11 16 18 19 36 51 54 67 59 72 69 76 88 75 65 51 24 18 13 22 25 19 76 97 98 92 96 55
2 2 2 2 2 2 2 2 3 3 3 3 4 5 4 5 7 8 9 9 10 10 19 22 37 40 59 58 46 74 72 88 76 62 41 38 18 14 22 39 36 100 64 98 72 58 100
2 2 2 2 2 2 2 2 2 2 2 2 2 2 2 2 3 5 7 10 10 14 24 24 23 30 46 54 67 74 77 78 76 64 45 58 22 17 21 43 57 99 96 83 100 100 100
2 2 2 2 2 2 2 2 2 2 2 2 2 2 2 2 2 3 4 9 11 21 13 19 18 24 36 56 61 68 66 68 80 63 61 78 27 17 21 45 46 79 51 65 99 98 99
13 15 16 18 20 22 18 16 18 18 15 10 4 2 2 2 2 3 4 8 24 12 14 16 17 22 36 47 60 62 62 58 63 66 68 95 27 21 20 64 43 43 67 100 100 98 82
41 36 34 36 40 44 37 31 24 30 31 34 32 29 9 3 3 4 5 13 25 4 6 10 15 22 32 50 60 60 65 61 76 79 73 73 33 21 18 19 83 55 82 93 98 96 99
51 46 39 37 35 33 33 28 34 34 25 26 29 28 30 26 5 5 7 18 7 3 7 17 18 25 30 56 71 71 61 59 76 76 87 92 60 66 28 24 27 89 97 62 91 75 76
40 35 34 35 34 29 25 26 27 24 25 26 26 23 26 35 40 16 7 7 7 3 20 18 18 35 69 61 63 74 70 60 73 76 97 99 100 97 51 42 19 31 94 91 93 98 80
38 40 40 38 39 44 46 48 39 36 43 39 41 30 24 31 51 40 17 5 6 6 17 28 19 51 79 94 79 82 78 71 73 84 97 94 56 100 69 28 34 18 26 51 99 100 97
46 44 46 48 39 40 40 42 64 78 80 74 59 36 31 45 50 45 37 19 5 6 29 27 29 51 65 100 98 89 92 99 90 97 93 92 67 50 79 40 22 99 90 99 100 100 96
63 73 65 50 49 45 54 54 47 58 94 100 96 64 49 62 49 31 33 32 18 5 10 29 22 100 98 100 100 98 100 100 92 98 91 88 43 45 97 95 23 23 86 98 100 100 82
70 65 56 46 42 45 48 82 89 82 77 100 100 100 79 68 56 48 36 34 24 7 6 21 38 66 100 100 96 100 100 99 99 98 98 56 43 38 35 39 91 29 23 98 98 100 67
75 72 48 35 46 72 89 81 84 90 100 100 100 98 86 78 61 34 26 24 31 14 6 9 36 52 85 100 100 100 100 98 98 100 68 51 58 48 41 61 100 98 71 78 100 100 99
53 58 25 23 48 52 48 37 26 68 100 100 100 99 96 81 80 72 46 34 38 20 7 7 16 39 89 97 100 100 95 100 97 98 77 63 65 61 45 43 94 94 100 97 100 97 94
23 39 57 65 77 72 65 53 44 69 100 100 100 100 100 100 90 79 56 31 49 32 10 7 13 31 64 100 100 94 100 96 97 86 96 82 84 81 42 30 57 65 35 88 91 89 94
47 60 84 91 94 86 74 57 42 39 100 100 97 100 98 97 99 80 34 48 70 46 14 9 100 100 33 82 91 100 99 97 100 87 98 100 92 90 45 33 32 18 28 37 32 35 42
48 68 83 100 100 100 100 92 70 37 100 99 94 100 93 100 91 62 60 99 100 68 54 80 100 36 38 44 90 75 100 100 97 100 93 97 100 83 44 40 29 25 29 34 36 27 46
76 100 98 98 100 100 92 91 59 36 47 50 91 100 100 100 96 98 100 100 100 52 27 66 100 88 21 52 94 77 94 100 99 100 98 96 97 85 42 61 32 26 28 40 41 31 47
82 94 100 100 100 100 92 100 70 60 87 99 100 100 100 100 100 100 99 98 98 75 31 98 70 66 16 86 89 82 94 100 98 100 100 93 93 87 78 55 29 30 74 100 40 45 98
83 77 87 86 97 92 100 92 75 68 98 100 98 100 100 100 100 100 100 97 94 75 57 72 98 37 43 91 77 77 93 100 99 100 100 100 96 87 87 80 40 46 41 56 38 55 58
77 100 99 99 100 92 98 88 80 88 100 100 100 100 100 100 100 100 100 98 60 68 46 42 37 33 52 86 64 73 88 100 98 97 100 100 98 100 83 60 66 68 78 78 41 43 40

GFSGBSN_500_rhum_036.txt.gz
RH
97 96 88 94 92 78 82 92 78 71 62 61 63 55 51 58 56 55 56 58 58 66 77 74 65 62 58 55 74 55 55 60 60 54 49 52 28 12 5 33 20 21 21 39 49 70 66
96 96 96 96 96 95 96 93 94 83 73 68 71 68 54 62 62 59 62 57 56 54 64 68 75 74 75 75 69 68 65 67 64 60 50 52 27 13 5 6 7 48 16 29 72 95 68
95 95 96 96 95 96 96 97 96 94 90 79 72 74 73 65 68 62 62 64 59 60 62 60 58 68 69 89 82 67 68 81 80 61 52 53 24 13 6 5 7 10 15 34 83 56 42
96 97 95 96 96 96 96 95 96 96 96 92 85 79 78 78 70 66 63 62 66 68 68 65 54 51 58 75 78 70 74 81 87 66 51 52 29 14 6 5 6 10 25 61 89 98 89
96 97 96 96 97 96 97 83 70 72 79 80 84 82 81 75 72 65 65 66 62 66 62 61 56 46 59 60 74 74 76 72 74 66 54 52 43 16 8 6 8 26 48 88 86 88 65
71 84 88 92 91 90 91 77 39 32 30 36 39 42 53 66 66 62 61 62 63 63 56 60 54 54 45 51 66 77 77 74 73 64 57 52 45 22 8 7 21 100 77 100 97 95 99
8 9 13 26 37 57 53 29 35 14 15 16 15 14 14 15 16 27 28 30 40 47 46 53 48 61 51 43 50 60 78 72 73 69 63 53 47 32 10 9 18 95 90 95 99 92 88
3 3 4 4 6 7 8 8 8 8 9 10 11 10 14 14 15 13 11 9 10 18 28 30 37 48 50 48 43 59 70 78 77 76 74 57 51 41 13 11 17 49 82 96 93 64 65
2 2 3 3 3 3 3 4 4 4 4 5 6 6 7 8 8 8 10 9 11 12 14 14 23 26 49 41 52 54 64 82 73 79 76 67 43 40 14 11 20 14 16 81 100 100 76
2 2 2 2 2 2 2 2 2 2 3 3 3 3 3 4 3 5 7 7 8 9 13 15 16 19 25 28 33 65 58 81 72 76 82 72 43 45 34 12 23 23 41 82 96 83 65
2 2 2 2 2 2 2 2 2 2 2 2 2 2 2 2 2 2 2 3 5 7 10 14 14 16 20 20 36 60 72 76 72 88 89 62 48 54 24 16 22 60 80 79 91 100 86
3 2 2 2 2 2 2 2 2 2 2 2 2 2 2 2 2 2 2 2 3 5 8 9 11 13 16 18 24 45 58 66 80 91 92 80 58 56 40 17 25 81 53 91 96 58 66
3 3 3 3 3 3 3 3 2 2 2 2 2 2 2 2 2 2 2 2 16 4 5 10 11 10 11 15 24 34 37 51 58 66 63 70 69 68 68 20 36 71 86 79 89 97 53
3 3 3 5 18 28 32 24 18 22 32 25 22 9 7 3 3 4 2 3 7 2 2 7 12 10 9 15 18 23 33 47 61 69 84 73 63 70 66 20 81 57 42 66 96 94 96
6 7 13 56 63 63 58 46 40 40 48 37 43 40 30 28 28 17 7 4 2 1 2 6 10 40 52 12 17 32 32 28 59 74 73 75 72 84 64 35 28 98 44 68 86 98 92
39 54 63 71 73 75 68 61 54 49 50 41 35 41 34 35 48 40 26 12 2 2 2 6 21 44 54 17 12 17 44 39 56 72 82 84 92 92 97 78 41 24 94 95 76 98 85
82 72 66 69 68 61 56 49 49 46 41 34 24 24 26 22 30 35 30 22 18 8 3 9 30 20 48 36 62 40 40 61 68 70 80 86 84 91 98 97 71 48 41 70 100 96 77
80 70 62 53 51 48 42 41 49 57 64 53 32 29 29 34 31 26 20 13 18 22 14 4 15 53 23 35 100 100 81 78 88 79 73 84 72 85 86 100 84 75 66 41 79 94 97
73 73 60 44 39 41 49 57 65 74 74 74 70 58 52 46 42 31 27 23 21 16 19 12 5 25 57 23 90 96 99 94 100 100 77 80 76 88 93 98 99 72 37 100 85 88 78
96 75 62 54 51 52 60 64 68 70 65 90 94 98 84 81 59 58 50 36 29 22 17 28 10 8 22 30 100 99 96 100 100 86 95 100 92 71 76 80 98 80 68 98 99 88 79
81 73 61 52 52 58 60 57 55 59 60 94 100 95 70 55 36 26 53 43 42 36 31 31 24 8 10 20 65 91 100 94 97 78 100 98 71 79 100 95 93 95 85 68 78 99 99
66 63 64 63 63 58 54 61 65 78 69 99 100 96 76 68 72 74 81 68 51 45 41 23 36 26 7 17 99 100 100 98 95 96 92 97 89 86 96 100 83 71 97 100 84 48 94
69 71 59 50 45 44 50 52 66 70 86 100 100 100 99 90 84 86 68 46 49 59 47 23 29 41 14 8 42 96 100 100 97 96 100 97 81 98 89 92 72 72 65 100 100 100 100
40 30 37 32 30 32 36 41 26 16 26 100 100 100 100 98 95 81 77 68 61 70 51 33 33 50 26 11 73 50 92 87 99 97 92 93 82 89 98 94 60 58 65 68 91 88 89
20 45 56 48 46 38 35 39 73 41 50 88 100 100 100 100 83 74 62 88 100 100 80 50 48 39 49 11 82 35 36 100 99 100 98 100 96 81 70 77 67 70 55 51 62 41 56
65 62 47 40 42 59 55 51 71 82 73 48 68 94 100 100 92 82 100 100 100 100 87 54 51 74 100 36 98 88 100 91 99 98 100 100 94 88 89 73 65 68 56 47 57 54 53
41 41 57 76 90 56 86 90 100 100 87 42 36 99 100 100 100 100 98 94 98 100 84 70 84 67 96 32 59 98 68 86 87 97 100 100 100 82 89 90 73 75 63 77 84 52 61
57 48 55 77 91 82 98 100 100 100 95 46 41 100 100 100 100 85 84 94 100 100 95 91 100 70 45 30 90 97 52 40 66 92 99 100 100 92 83 93 87 88 96 66 73 77 100
47 53 76 62 100 82 94 100 100 100 100 59 68 100 100 96 98 73 100 100 100 95 96 85 82 98 88 52 38 48 38 34 58 79 90 97 100 100 89 80 90 100 94 68 85 94 94

GFSGBSN_500_rhum_039.txt.gz
RH
99 96 97 97 97 75 73 95 96 91 77 73 75 77 75 71 70 70 69 60 49 48 53 53 50 47 47 58 64 64 64 61 62 62 54 42 42 46 24 7 3 6 14 13 18 62 57
97 95 95 97 96 97 94 86 97 96 90 76 82 84 83 84 82 82 76 68 55 50 52 54 51 47 44 45 66 76 69 74 66 71 70 46 44 47 29 7 4 4 13 12 48 63 38
97 96 97 97 96 96 97 97 94 83 98 90 87 93 91 82 80 83 86 82 69 60 54 53 52 50 50 63 49 71 88 73 65 70 72 54 44 47 37 8 4 4 11 12 37 57 84
96 98 97 96 96 97 97 97 96 97 96 96 97 97 96 88 87 78 86 88 78 71 65 50 48 54 57 53 36 57 73 73 65 66 71 55 46 47 38 10 5 4 10 19 43 92 79
97 95 97 97 96 96 96 96 96 96 96 96 95 96 96 96 94 86 85 86 82 68 63 59 48 46 62 57 44 33 53 74 68 69 64 57 48 46 41 16 7 5 13 27 56 95 81
9 82 90 83 69 89 96 97 97 95 96 94 94 86 80 91 94 97 78 76 77 70 58 56 50 52 54 57 50 44 44 56 66 69 56 64 50 46 44 21 10 9 16 53 53 89 98
4 4 6 82 12 10 11 13 41 79 96 87 93 76 56 19 20 20 53 88 70 60 62 58 52 55 58 56 51 47 41 36 46 69 67 70 53 48 46 25 8 6 12 56 83 95 89
3 3 3 2 4 4 3 3 4 4 6 15 34 45 58 17 15 12 13 11 18 47 56 47 46 43 45 45 49 51 47 48 44 66 76 64 61 48 48 26 9 6 7 52 95 85 84
3 3 3 3 3 2 2 2 2 2 3 3 3 4 6 13 9 9 12 10 16 17 22 20 24 26 25 32 46 49 51 63 55 47 66 63 72 59 47 37 14 7 8 29 80 85 98
2 2 2 2 2 2 2 2 2 2 2 2 2 2 2 3 3 4 4 6 8 19 20 23 13 21 17 16 23 50 50 60 55 51 80 50 80 67 60 54 18 9 11 10 73 100 75
3 2 2 2 2 2 2 2 2 2 2 2 2 2 2 2 2 2 2 2 3 3 12 19 20 19 14 16 21 41 52 60 59 71 72 56 77 70 59 66 22 17 24 21 20 56 53
2 2 2 2 2 2 2 2 2 2 2 2 2 2 2 2 2 2 2 2 2 2 7 8 13 14 16 16 14 18 33 36 56 72 64 53 82 77 62 55 26 18 23 58 57 71 62
2 2 2 2 2 2 2 2 2 2 2 2 2 2 2 2 3 2 2 2 2 2 4 5 6 8 8 10 12 16 18 21 28 42 42 59 67 76 72 61 48 19 24 55 42 61 29
3 2 3 2 2 2 3 3 3 3 3 4 5 6 3 2 4 3 3 2 2 1 2 2 3 4 5 6 9 11 14 17 19 26 48 70 70 82 71 67 72 27 21 25 33 46 46
3 3 9 16 9 5 6 6 13 23 24 27 21 21 15 23 18 16 7 3 1 1 1 2 26 9 3 6 11 12 11 12 16 19 39 65 59 87 83 64 80 42 44 46 64 56 68
4 6 23 34 39 33 26 43 81 96 97 76 48 43 49 60 49 40 30 6 2 2 2 2 35 25 38 56 89 32 14 14 16 19 51 58 76 91 91 81 79 61 41 72 62 91 57
5 22 34 77 83 79 95 95 100 100 100 100 90 57 53 74 58 49 25 12 18 9 8 3 3 17 52 29 72 96 32 22 30 26 49 67 80 84 95 89 90 63 39 52 49 97 67
7 31 70 100 100 100 100 100 100 100 100 100 100 64 54 79 54 37 23 19 16 17 23 19 7 4 24 74 91 85 48 14 55 100 64 77 87 90 85 95 100 67 78 54 33 35 81
23 58 100 100 100 100 100 100 100 94 100 100 100 91 81 75 40 19 20 18 18 17 15 16 26 16 9 32 85 84 83 88 68 88 39 96 75 92 95 89 93 94 88 64 70 66 50
76 100 100 100 100 100 100 100 100 99 100 100 100 99 76 47 35 28 26 25 25 27 22 18 19 29 19 16 70 51 69 70 100 98 81 100 87 75 46 65 88 88 76 66 83 61 41
100 100 100 100 100 100 100 100 100 100 100 100 100 80 60 44 28 33 38 33 32 28 28 30 27 25 20 20 17 15 17 66 100 99 89 100 93 72 68 84 92 96 98 88 72 54 50
100 100 100 100 94 87 78 77 81 83 99 100 100 82 62 59 58 52 49 43 32 40 46 40 31 28 33 25 24 12 9 19 86 100 94 100 83 85 74 93 91 97 90 98 79 78 64
96 90 80 74 69 67 62 57 59 72 100 100 100 97 94 69 70 67 38 26 34 57 58 60 52 41 36 25 26 18 8 26 85 98 100 100 87 98 68 91 100 98 60 78 83 86 97
78 70 63 61 60 61 59 59 65 83 100 100 100 100 100 97 80 49 44 50 38 54 61 76 64 52 41 50 31 34 24 21 33 97 100 98 98 78 73 100 99 41 60 80 69 94 83
64 62 60 60 63 69 70 61 55 37 61 78 81 100 100 100 83 68 58 52 49 65 85 83 51 48 55 51 32 33 37 40 42 100 100 100 100 97 89 80 80 60 55 79 87 70 75
47 47 68 79 81 68 46 34 30 30 49 52 54 99 100 100 100 61 58 77 85 100 89 78 74 80 72 46 45 64 52 41 35 98 100 99 100 99 100 98 77 53 76 86 80 54 65
27 47 65 64 61 64 69 71 66 60 52 49 42 38 93 100 100 100 96 80 95 100 100 99 92 100 82 57 45 42 56 57 57 75 98 96 100 100 100 95 59 65 92 96 78 55 77
77 52 31 29 38 43 48 55 61 62 55 54 52 47 32 79 100 82 92 88 96 98 78 66 100 100 100 70 54 41 31 73 80 99 99 96 97 100 100 89 70 85 99 97 70 81 95
84 50 62 61 52 48 55 73 74 99 95 68 47 78 77 62 100 98 100 99 99 100 99 100 88 100 98 62 48 40 39 51 94 98 100 80 86 100 100 92 94 100 96 94 92 100 100

GFSGBSN_500_rhum_042.txt.gz
RH
68 68 79 84 84 92 96 95 99 96 92 93 98 70 96 91 87 67 67 65 62 57 51 41 37 41 50 48 62 34 51 68 66 67 63 58 58 46 46 24 8 4 4 12 12 24 37
71 78 79 82 70 91 96 97 96 97 97 94 90 97 94 96 94 83 80 67 63 69 63 48 36 35 43 51 58 39 44 67 70 74 68 68 63 44 44 22 9 4 6 12 12 26 39
77 89 80 89 86 97 94 97 97 95 97 95 90 88 97 92 97 92 92 83 75 74 72 58 45 38 41 67 60 42 57 53 65 77 65 67 64 46 42 30 14 5 5 11 18 38 55
10 27 61 56 96 98 93 96 96 97 96 97 97 96 97 97 95 89 92 96 82 66 73 64 53 41 51 54 56 47 32 40 67 80 69 61 64 49 44 37 15 6 6 12 25 35 45
4 4 18 43 8 93 97 97 97 97 96 97 96 98 98 92 94 99 99 97 91 71 64 58 60 53 58 55 57 51 36 55 46 63 65 61 66 52 45 42 21 8 7 16 42 36 58
4 4 4 6 42 4 33 92 68 97 97 96 97 96 96 97 99 99 98 96 87 82 64 61 54 60 64 56 59 57 43 40 37 52 52 58 67 56 46 45 24 14 9 13 16 33 72
4 4 3 3 3 16 4 10 90 13 55 43 76 95 96 97 94 94 86 97 92 73 60 63 56 62 63 57 58 62 51 42 35 31 48 64 63 61 50 46 37 15 9 11 16 31 69
5 4 4 4 3 3 3 3 4 52 21 21 4 6 51 74 94 96 94 26 51 61 68 68 64 66 61 54 52 60 55 50 40 41 60 51 56 65 60 52 45 24 8 10 17 64 86
5 4 4 4 3 3 3 3 2 2 3 9 10 3 3 10 41 14 85 85 75 36 30 33 46 57 43 47 43 48 50 57 47 43 42 49 86 62 58 60 52 36 9 10 20 60 64
6 4 4 4 3 3 3 2 2 2 2 2 3 3 3 2 2 10 11 8 62 51 38 34 15 21 24 37 38 34 36 48 46 45 55 40 91 63 63 68 57 51 19 10 9 29 39
6 5 4 4 3 3 3 2 2 2 2 2 2 2 2 2 2 2 3 7 8 17 26 25 24 21 20 21 21 26 34 36 46 64 52 48 89 92 79 79 59 48 21 15 13 10 14
5 4 4 4 3 3 3 2 2 2 2 2 2 2 2 2 2 2 2 2 2 3 19 16 17 17 18 19 17 14 18 24 34 43 39 44 75 70 68 80 64 57 28 20 17 15 10
4 3 2 2 2 2 2 2 2 2 2 2 2 2 2 2 2 2 2 2 2 3 12 8 7 7 7 8 14 15 15 15 18 27 28 44 52 72 79 74 61 55 34 30 24 15 12
2 2 2 3 3 3 3 2 2 2 2 2 2 2 2 3 2 2 2 2 2 2 2 2 3 3 4 5 6 8 11 15 15 17 21 30 37 70 75 78 87 59 52 36 16 15 25
3 2 3 4 4 4 4 3 2 2 2 3 3 3 3 21 4 3 3 2 2 1 2 3 2 2 2 4 6 6 7 9 12 16 18 22 24 59 87 98 94 72 69 64 39 31 23
7 7 8 9 7 5 5 12 12 12 9 8 8 7 21 52 18 15 7 1 1 2 3 3 4 2 2 3 7 7 5 6 9 11 18 23 22 50 84 97 83 77 75 78 49 43 28
10 12 12 8 6 6 18 40 46 41 32 37 62 57 57 89 68 42 5 3 4 6 6 5 4 3 5 20 10 6 15 11 7 13 14 18 25 46 82 72 87 78 70 70 59 58 44
8 6 6 7 7 6 35 50 100 82 80 100 100 91 77 100 89 43 11 16 22 23 20 26 9 5 7 58 98 47 46 38 17 14 20 19 23 19 45 70 86 88 76 78 59 50 44
6 7 7 7 7 10 36 94 100 100 100 100 100 89 70 90 62 28 29 39 34 31 37 35 26 22 9 97 99 100 91 86 71 41 38 38 40 21 35 58 68 70 79 77 81 59 37
8 8 10 13 12 26 76 100 100 100 100 100 100 96 71 57 50 42 40 34 34 24 22 19 22 23 26 19 63 72 91 96 100 98 92 88 61 42 15 52 90 87 90 82 81 62 57
8 21 35 31 29 80 100 100 100 100 100 100 99 78 55 38 38 45 34 23 26 21 18 20 18 23 22 19 22 16 41 100 95 98 67 89 65 70 35 38 76 99 98 97 80 70 72
20 29 55 94 100 100 100 100 100 100 100 100 97 74 52 46 38 59 53 34 27 29 26 26 23 28 30 23 25 22 21 17 48 67 100 99 95 99 44 55 78 80 100 90 91 86 78
47 92 100 100 100 100 100 100 100 100 100 100 94 89 78 61 52 44 23 24 52 65 46 44 36 33 32 33 35 32 26 22 20 15 53 94 97 88 63 92 100 100 34 76 87 100 86
100 100 100 100 100 100 100 100 100 100 100 100 97 98 91 66 57 18 35 50 58 61 49 62 67 53 45 56 44 36 32 28 24 21 13 13 28 100 89 86 100 35 74 66 77 94 100
100 100 100 96 91 87 82 79 74 79 99 100 100 100 100 91 62 69 50 46 78 68 53 52 68 82 73 81 62 50 35 32 23 26 41 41 50 70 100 100 94 65 70 74 79 59 72
100 96 84 77 67 59 56 56 61 74 100 100 100 100 100 100 83 67 80 82 84 88 76 56 71 100 85 82 82 56 36 32 30 24 32 37 58 94 100 100 98 85 86 93 92 73 89
84 80 69 54 44 38 37 41 51 84 100 100 96 81 99 100 82 87 70 66 85 87 85 82 70 99 100 74 85 70 47 35 31 26 23 44 43 78 100 98 92 92 96 100 99 63 99
58 55 39 31 30 34 38 43 46 57 71 69 67 63 80 89 84 94 69 62 65 63 50 51 100 77 97 84 79 74 51 36 32 26 31 60 57 56 100 97 92 100 100 100 87 86 97
78 72 70 74 83 72 52 42 31 37 78 88 81 76 78 89 100 93 89 99 98 51 78 100 100 99 100 100 99 80 66 49 34 28 33 56 81 100 94 97 98 96 100 89 92 100 97